Find Starlink 31818

NORAD ID: 59741 Int'l Des: 2024-090 Owner: SPXS Country: US Constellation: starlink operational
LEOCIRCULAR

Current View

Loading 3D Globe...

About Starlink 31818

Starlink 31818 (NORAD 59741) is a starlink constellation satellite (v2 mini) launched May 13, 2024 by SPXS of US. It operates in LEO, CIRCULAR orbit with a mass of 730.00 kg.

Upcoming Passes

Passes for default location (London). Set your location on the main map for personalized predictions.

Altitude History

Loading altitude history...

Two-Line Element Set

1 59741U 24090M 26264.03838369 .00000705 00000-0 35149-4 0 9999
2 59741 43.0034 160.4850 0001180 278.1446 81.9272 15.27578841133316
Epoch: Sep 21, 2026 • Age: 52 hours

Current Status

Altitude 482.3 km
Apogee / Perigee N/A
Velocity 7.63 km/s
Sub-Earth Point 17.48°N, 93.52°E
Launch Date May 13, 2024
Age 2.3 years
Type internet

Technical Details

Classification Payload
Mass 730.00 kg
Dry Mass 700.00 kg
Length 0.30 m
Span 29.00 m
Shape ? Box + pan
Manufacturer SPXS
Bus Type Starlink V2M
Phase Status In Orbit
Owner/State SPXS/US

Most Searched